Dewpoint
55 55 53 53 53 54 53 52 49 50 52 53 54 57 57 57 57 57 57 56 54 54 54 54 55 56 58 59 58 57 57 56 55 56 56 55 55 55
57 56 55 55 55 55 54 53 51 49 48 52 54 56 57 56 57 57 56 56 54 53 53 53 54 55 56 57 57 57 56 55 55 56 56 55 55 54
58 57 57 56 56 56 55 54 52 50 46 52 55 56 56 56 56 56 56 56 55 53 52 52 52 53 54 55 56 56 56 55 55 55 55 56 55 55
59 57 57 57 57 57 55 54 53 51 48 46 53 55 55 57 57 56 56 56 56 54 52 51 51 51 52 54 54 55 55 55 54 54 54 54 55 55
55 58 57 58 57 57 56 54 53 52 51 48 50 55 56 57 56 56 56 57 56 55 52 51 50 50 50 51 53 53 53 53 54 53 53 53 53 54
54 57 58 58 58 57 56 55 54 53 52 50 50 53 54 55 56 56 55 56 56 56 54 52 50 49 49 49 51 51 52 52 53 52 52 52 51 52
46 49 43 43 49 56 56 56 55 53 52 51 50 51 52 53 55 55 55 55 56 56 55 53 52 50 49 47 49 49 50 51 51 51 52 51 51 51
40 41 41 39 41 44 49 55 55 54 53 52 52 50 51 52 55 54 55 54 53 55 55 54 53 52 52 50 49 49 48 49 49 50 50 50 50 49
35 37 37 37 37 39 44 49 52 53 53 54 52 52 51 52 53 54 54 53 52 53 55 54 52 53 53 52 50 48 47 47 48 48 49 49 49 48
35 34 34 35 34 36 41 45 52 53 52 53 54 54 54 53 53 53 54 54 52 52 55 51 49 53 54 53 51 49 48 47 47 47 47 48 47 47
32 33 33 33 34 35 38 40 45 53 52 52 54 55 54 54 54 54 52 52 51 50 51 52 48 50 48 51 53 50 48 47 46 46 46 46 46 46
31 32 32 33 33 34 35 36 37 37 39 43 51 53 51 53 53 54 54 52 51 50 49 53 48 49 50 47 48 50 49 46 46 45 45 45 45 46
30 31 32 32 32 33 34 34 35 35 37 38 41 48 53 54 53 52 55 54 53 52 51 53 49 47 49 49 47 45 48 49 46 45 44 44 44 45
30 31 31 32 32 32 33 34 35 36 36 37 38 40 43 51 54 54 54 56 56 54 51 53 51 50 50 49 52 45 44 47 47 47 46 45 42 43
31 31 30 30 30 31 32 32 34 34 35 35 36 36 36 37 37 41 42 47 48 48 51 52 52 50 52 52 52 50 50 47 43 47 45 44 43 41
30 30 30 29 29 29 31 31 32 33 33 34 34 36 37 38 38 37 40 41 48 46 39 42 49 51 50 52 52 50 48 52 43 43 44 43 42 42
30 30 30 30 30 29 29 29 31 32 32 33 33 34 35 36 37 38 38 38 41 42 42 38 38 42 44 48 49 51 48 46 44 42 40 42 40 41
30 29 30 30 30 30 30 30 30 30 31 32 33 33 33 34 35 37 38 38 38 37 38 36 37 40 41 40 40 45 44 45 41 38 39 42 42 38
28 28 29 30 30 31 31 31 31 32 31 31 31 32 33 34 34 35 36 37 37 37 37 35 37 38 39 42 36 34 42 40 39 38 38 40 42 39
28 28 28 29 30 30 31 31 31 32 31 31 30 30 32 33 32 33 33 34 35 36 36 36 37 38 39 39 40 33 33 36 37 38 36 32 31 32
27 27 29 29 29 30 30 31 31 31 31 31 31 31 31 31 31 32 33 33 34 34 35 36 37 38 37 37 38 35 32 34 36 36 33 34 34 33
26 26 27 28 29 29 29 30 30 30 31 31 31 31 32 31 31 31 31 31 32 33 34 36 37 36 36 38 37 37 33 31 32 33 33 34 36 38
26 26 27 27 27 28 28 28 29 29 30 30 31 31 32 31 32 32 32 32 32 32 33 34 34 34 35 36 37 36 34 32 32 32 32 32 35 35
Wind_Speed
35 33 32 29 27 21 22 24 20 17 25 17 13 26 23 21 23 22 25 26 34 34 35 34 32 30 29 28 28 27 26 26 26 25 25 24 23 22
34 33 34 29 27 22 21 22 20 17 16 22 23 11 25 22 22 24 23 23 29 34 35 35 34 34 33 32 33 32 30 28 27 26 26 25 24 24
34 36 36 34 28 24 20 22 20 20 21 9 12 12 18 22 20 22 20 22 20 31 35 35 35 34 34 34 35 33 33 32 30 30 28 28 28 26
26 39 37 34 34 26 24 26 25 23 21 20 12 16 19 23 22 22 20 19 21 24 33 33 35 37 37 38 38 37 36 36 34 34 32 31 28 28
18 39 39 37 36 29 27 29 25 22 25 17 13 7 10 14 15 13 19 19 19 22 27 33 34 33 34 36 36 38 38 38 39 37 34 34 32 31
4 12 35 34 37 35 29 33 29 26 23 24 14 11 9 8 15 18 16 16 21 15 19 23 27 30 32 35 37 38 38 39 39 38 37 37 35 35
12 11 16 17 8 29 32 32 30 27 22 26 20 11 14 11 24 16 20 16 16 12 14 16 16 16 20 27 28 32 35 37 37 37 39 37 38 38
14 14 14 21 17 14 7 33 36 35 31 26 27 23 22 20 17 22 23 15 16 16 17 14 17 18 18 19 29 33 37 39 37 37 36 37 37 37
21 16 13 16 18 12 9 8 28 40 39 29 29 26 25 23 23 20 21 21 18 7 19 17 14 22 19 21 30 34 36 35 37 38 38 38 38 38
21 17 14 19 22 21 13 5 14 23 32 30 29 28 25 22 24 25 24 23 9 9 15 23 12 18 16 21 27 33 35 36 37 37 37 38 38 37
17 16 19 16 21 24 13 9 6 9 6 18 22 25 23 24 24 19 19 18 18 16 16 15 14 17 10 19 16 29 33 35 35 36 35 36 36 35
15 14 14 18 19 18 14 11 9 11 11 10 9 18 13 23 30 28 23 24 20 12 13 18 13 10 12 9 15 14 18 28 33 34 34 35 34 22
15 15 13 17 16 15 13 13 12 11 10 6 9 11 22 18 16 20 25 24 23 21 12 19 17 15 12 9 4 11 17 15 19 19 28 31 29 30
12 10 12 16 14 13 11 13 13 13 14 14 9 5 8 14 22 20 22 21 21 26 18 23 15 22 19 13 17 7 12 14 14 17 17 19 26 31
10 12 14 16 15 12 13 12 10 11 10 10 12 11 10 7 8 5 3 11 9 9 16 26 22 21 20 19 15 15 10 12 17 16 14 18 18 16
13 13 12 14 13 13 12 13 12 10 9 10 9 8 8 13 13 8 2 5 17 15 1 6 19 19 22 19 19 16 17 14 10 16 16 14 14 16
12 10 13 14 15 16 16 15 12 11 11 9 10 10 9 11 11 13 8 5 3 4 9 3 2 5 5 13 19 20 19 16 14 13 14 18 15 16
11 15 15 13 13 13 13 13 12 13 11 11 8 8 8 7 8 7 5 8 9 6 3 1 1 5 3 2 2 9 14 17 10 12 6 15 18 13
16 15 14 14 13 12 11 11 11 13 11 10 10 9 8 7 6 5 6 5 4 6 5 3 1 2 9 14 1 9 9 11 11 12 10 9 6 6
17 15 14 14 14 13 13 12 11 12 13 12 12 10 9 6 7 7 6 5 5 4 4 3 2 5 3 4 3 2 11 5 10 14 12 4 4 4
17 16 15 15 14 14 12 11 12 11 11 11 10 10 10 7 9 7 6 7 8 7 9 9 7 6 5 4 2 2 2 7 1 5 7 9 6 3
17 17 16 15 15 15 14 12 11 11 11 11 11 10 9 9 9 9 8 8 7 8 11 10 5 5 5 7 6 5 4 3 8 10 6 4 5 10
18 17 17 16 16 15 14 14 13 12 12 12 10 10 10 10 9 9 8 9 8 9 9 9 5 5 6 7 9 8 7 7 6 4 2 10 2 2
Wind_Direction
206 206 204 208 206 201 191 181 176 184 211 212 186 205 207 208 211 205 212 213 214 217 219 221 220 220 217 210 208 209 210 211 217 218 217 216 215 215
207 205 206 205 205 201 197 190 188 178 205 204 211 188 198 204 207 204 211 210 211 216 218 219 219 218 217 213 210 210 210 212 214 216 218 215 217 214
210 206 207 205 203 198 196 194 190 184 204 187 190 185 189 201 201 203 204 207 215 216 218 219 216 217 217 214 214 213 211 213 214 216 215 218 218 217
245 206 204 206 206 199 196 202 199 201 204 200 177 186 201 200 200 194 203 209 215 218 217 216 217 216 215 214 214 214 213 213 215 219 217 217 219 219
303 217 201 202 203 200 196 204 205 202 208 205 187 163 193 179 195 197 201 206 214 218 212 216 217 216 217 217 216 215 215 214 217 219 219 220 220 219
262 297 198 203 205 203 199 201 205 202 202 208 192 174 182 179 187 197 207 210 218 209 209 207 211 216 217 219 219 218 216 216 217 218 221 222 221 222
73 53 40 42 21 216 198 199 200 202 200 206 208 189 178 171 194 199 215 215 222 204 213 215 205 208 219 219 222 223 220 220 219 217 220 222 222 224
60 59 47 35 10 357 352 202 193 194 204 202 206 209 202 197 185 196 203 201 224 210 210 229 195 213 214 209 217 219 219 220 218 218 220 221 224 224
51 31 58 41 20 345 346 309 209 196 198 199 204 208 207 198 193 192 195 204 217 191 191 231 187 224 214 217 217 217 219 219 220 220 219 219 222 222
50 29 25 37 13 3 2 332 243 211 205 201 207 210 211 200 192 200 201 212 224 202 178 222 197 223 214 218 218 214 218 219 220 221 220 220 220 220
34 32 16 22 14 14 32 24 320 232 294 238 215 208 205 200 191 198 200 199 221 226 206 217 210 225 222 231 223 217 218 220 221 222 222 221 221 219
17 21 18 4 11 15 24 37 36 358 355 331 260 249 235 213 199 204 208 209 217 231 216 207 217 201 249 232 226 216 218 226 224 222 221 222 219 212
11 1 357 350 6 13 23 25 13 344 6 353 282 261 230 224 213 215 215 210 213 223 209 188 209 203 219 253 246 215 205 217 214 227 227 225 215 204
358 354 336 343 17 18 30 17 6 5 21 38 33 332 278 236 228 219 219 224 218 217 202 184 205 200 212 224 239 220 219 217 205 222 217 222 214 209
355 2 342 347 13 25 25 24 26 22 23 43 44 28 4 336 314 305 255 212 205 208 203 192 204 203 206 216 226 227 221 223 213 220 212 207 202 199
4 351 349 7 14 26 22 25 26 27 20 12 16 9 6 28 37 8 359 253 212 206 176 203 209 204 216 217 214 226 217 221 212 213 217 212 201 199
7 359 16 11 5 13 16 12 18 19 30 20 1 1 14 19 28 25 9 357 268 208 206 195 90 174 194 208 217 223 230 227 224 200 197 226 222 208
17 14 14 6 3 5 6 4 7 5 6 6 360 356 360 0 11 11 20 24 24 3 38 326 208 154 171 208 168 209 210 219 207 195 203 215 233 219
15 12 8 358 358 355 359 2 356 342 348 3 348 349 355 352 2 353 356 360 7 4 13 349 56 227 200 215 135 43 209 197 182 198 201 199 223 234
9 1 0 356 353 350 352 354 347 341 344 346 345 342 341 346 347 340 328 321 317 322 310 311 292 261 201 201 191 69 25 197 191 194 183 149 87 90
358 0 355 355 353 346 344 347 339 334 332 333 336 334 330 328 318 309 302 298 289 283 280 272 269 274 158 142 127 78 22 28 68 185 174 159 173 194
357 356 353 355 351 346 342 341 337 334 332 328 327 330 330 323 305 300 296 286 284 272 263 269 253 215 217 210 210 167 161 86 72 90 87 106 179 198
350 350 352 350 348 342 339 336 335 331 330 326 319 315 317 315 310 301 294 291 291 288 287 288 248 215 248 246 225 212 191 178 178 162 77 13 316 334